Location: Crescent
(42.8242°N, 73.7329°W)
Time: 12:01:22
(UTC+00:00)

Vanguard 3 - Pass Details

Date: 19 February 2026
Orbit: 507 x 3205 km, 33.4° (Epoch: 8 March)

Event Time Altitude Azimuth Distance (km) Brightness Sun altitude
Rises 00:14:41 0° 263° (W) 4,071 12.3 -19.7°
Reaches altitude 10° 00:18:30 10° 251° (WSW) 2,671 10.8 -20.4°
Maximum altitude 00:23:14 24° 199° (SSW) 1,440 8.5 -21.3°
Enters shadow 00:24:55 20° 166° (SSE) 1,499 8.3 -21.6°
